Berlin, NH

2:17 PM EDT on July 22, 2017 (GMT -0400)
Berlin Municipal

Weather History for KBML - May, 2013

Change the Weather History Date:

Saturday, May 18, 2013

  Actual Average Record
Temperature  
Mean Temperature 48 °F -  
Max Temperature 69 °F 62 °F 91 °F (2017)
Min Temperature 30 °F 34 °F 27 °F (2003)
Degree Days  
Heating Degree Days 17    
Moisture  
Dew Point 34 °F    
Average Humidity 71    
Maximum Humidity 100    
Minimum Humidity 25    
Precipitation  
Precipitation 0.00 in - - ()
Sea Level Pressure  
Sea Level Pressure 30.28 in    
Wind  
Wind Speed 1 mph (NNW)    
Max Wind Speed 8 mph    
Max Gust Speed -    
Visibility 8 miles    
Events Fog    
Averages and records for this station are not official NWS values.
T = Trace of Precipitation, MM = Missing Value Source: NWS Daily Summary

Daily Weather History Graph

Daily Weather History Graph

Search for Another Location

Airport or City:

Trip Planner

Search our weather history database for the weather conditions in past years. The results will help you decide how hot, cold, wet, or windy it might be!

Date:

Astronomy

May. 18, 2013 Rise Set
Actual Time 5:13 AM EDT 8:09 PM EDT
Civil Twilight 4:39 AM EDT 8:43 PM EDT
Nautical Twilight 3:55 AM EDT 9:27 PM EDT
Astronomical Twilight 3:04 AM EDT 10:19 PM EDT
Moon 12:53 PM EDT (5/18) 1:21 AM EDT (5/18)
Length of Visible Light 16h 04m
Length of Day
14h 55m
First Quarter, 55% of the Moon is Illuminated
May 18
First Quarter
May 25
Full
May 31
Last Quarter
Jun 8
New
Jun 16
First Quarter

Hourly Weather History & Observations

Time (EDT) Temp. Windchill Dew Point Humidity Pressure Visibility Wind Dir Wind Speed Gust Speed Precip Events Conditions
12:52 AM 35.1 °F - 33.1 °F 92% 30.25 in 10.0 mi Calm Calm - N/A   Overcast
1:52 AM 35.1 °F - 33.1 °F 92% 30.26 in 10.0 mi Calm Calm - N/A   Overcast
2:52 AM 32.0 °F - 30.9 °F 96% 30.26 in 10.0 mi Calm Calm - N/A   Mostly Cloudy
3:52 AM 32.0 °F - 30.0 °F 92% 30.27 in 10.0 mi Calm Calm - N/A   Mostly Cloudy
4:07 AM 30.2 °F - 28.4 °F 93% 30.25 in 5.0 mi Calm Calm - N/A   Mostly Cloudy
4:15 AM 30.2 °F - 28.4 °F 93% 30.25 in 3.0 mi Calm Calm - N/A   Mostly Cloudy
4:52 AM 30.0 °F - 28.0 °F 92% 30.28 in 10.0 mi Calm Calm - N/A   Overcast
5:00 AM 30.2 °F - 28.4 °F 93% 30.25 in 1.5 mi Calm Calm - N/A   Overcast
5:06 AM 30.2 °F - 28.4 °F 93% 30.26 in 0.8 mi Calm Calm - N/A   Mist
5:16 AM 30.2 °F - 28.4 °F 93% 30.26 in 0.2 mi Calm Calm - N/A Fog Light Freezing Fog
5:52 AM 30.9 °F - 30.0 °F 96% 30.30 in 0.2 mi Calm Calm - N/A Fog Light Freezing Fog
6:24 AM 33.8 °F - 32.0 °F 93% 30.28 in 1.0 mi Calm Calm - N/A   Mist
6:30 AM 33.8 °F - 33.8 °F 100% 30.28 in 2.0 mi Calm Calm - N/A   Mostly Cloudy
6:36 AM 33.8 °F - 33.8 °F 100% 30.29 in 10.0 mi Calm Calm - N/A   Scattered Clouds
6:52 AM 37.0 °F 34.5 °F 35.1 °F 93% 30.32 in 10.0 mi WNW 3.5 mph - N/A   Clear
7:52 AM 46.0 °F - 39.0 °F 76% 30.32 in 10.0 mi Calm Calm - N/A   Clear
8:52 AM 54.0 °F - 41.0 °F 62% 30.32 in 10.0 mi Calm Calm - N/A   Clear
9:52 AM 61.0 °F - 37.0 °F 41% 30.31 in 10.0 mi Calm Calm - N/A   Clear
10:52 AM 64.9 °F - 37.9 °F 37% 30.30 in 10.0 mi Variable 4.6 mph - N/A   Mostly Cloudy
11:52 AM 64.0 °F - 35.1 °F 34% 30.30 in 10.0 mi Variable 4.6 mph - N/A   Overcast
12:52 PM 64.9 °F - 34.0 °F 32% 30.28 in 10.0 mi Variable 4.6 mph - N/A   Overcast
1:52 PM 66.9 °F - 33.1 °F 28% 30.27 in 10.0 mi NNW 5.8 mph - N/A   Overcast
2:52 PM 66.0 °F - 30.9 °F 27% 30.26 in 10.0 mi Calm Calm - N/A   Overcast
3:52 PM 66.0 °F - 30.9 °F 27% 30.25 in 10.0 mi NNW 5.8 mph - N/A   Overcast
4:52 PM 66.9 °F - 30.0 °F 25% 30.25 in 10.0 mi North 8.1 mph - N/A   Overcast
5:52 PM 66.0 °F - 32.0 °F 28% 30.25 in 10.0 mi Calm Calm - N/A   Mostly Cloudy
6:52 PM 61.0 °F - 42.1 °F 50% 30.27 in 10.0 mi SE 6.9 mph - N/A   Overcast
7:52 PM 57.9 °F - 43.0 °F 58% 30.27 in 10.0 mi ESE 3.5 mph - N/A   Scattered Clouds
8:52 PM 51.1 °F - 43.0 °F 74% 30.29 in 10.0 mi South 3.5 mph - N/A   Partly Cloudy
9:52 PM 45.0 °F - 41.0 °F 86% 30.29 in 10.0 mi Calm Calm - N/A   Clear
10:52 PM 45.0 °F 43.5 °F 39.9 °F 82% 30.30 in 10.0 mi NW 3.5 mph - N/A   Clear
11:52 PM 39.9 °F - 37.9 °F 93% 30.30 in 10.0 mi Calm Calm - N/A   Clear